Location: Marcé
(47.5801°N, 0.3280°W)
Time: 06:45:01
(UTC+01:00)

Vanguard 1 Rocket - Pass Details

Date: 06 December 2021
Orbit: 651 x 4224 km, 34.3° (Epoch: 23 January)

Event Time Altitude Azimuth Distance (km) Brightness Sun altitude
Exits shadow 02:36:14 25° 116° (ESE) 3,906 10.5 -57.4°
Drops below altitude 10° 02:44:35 10° 94° (E) 5,936 11.8 -56.3°
Sets 02:51:04 0° 86° (E) 7,529 12.5 -55.5°
